Regional Weather Roundup
Issued by NWS

Home | Current Version | Previous Version | Graphics & Text | Print | Product List | Glossary On
Versions: 1 2 3 4 5 6 7 8 9 10 11 12 13 14 15 16 17 18 19 20 21 22 23 24 25 26 27 28 29 30 31 32 33 34 35 36 37 38 39 40 41 42 43 44 45 46 47 48 49 50
000
ASUS43 KMKX 251300
RWRWI

WISCONSIN REGIONAL WEATHER ROUNDUP
NATIONAL WEATHER SERVICE MILWAUKEE/SULLIVAN WI
800 AM CDT SAT OCT 25 2014

NOTE: "FAIR" INDICATES FEW OR NO CLOUDS BELOW 12,000 FEET WITH NO
SIGNIFICANT WEATHER AND/OR OBSTRUCTIONS TO VISIBILITY.

WIZ001-002-006>008-014>016-023>028-251400-
NORTHWEST WISCONSIN

CITY           SKY/WX    TMP DP  RH WIND       PRES   REMARKS
SUPERIOR ARPT  CLEAR     48  34  58 W8        29.90R
ASHLAND        CLEAR     48  35  60 W10       29.86R
HAYWARD        CLEAR     49  33  54 W7        29.92R
SIREN          CLEAR     46  33  62 W7        29.95R
CUMBERLAND     CLEAR     45  32  61 W10       29.93S
RICE LAKE      CLEAR     44  35  70 W5        29.94R
CHETEK         CLEAR     48  36  63 W6        29.93R
LADYSMITH      CLEAR     49  36  59 W12       29.91R
EAU CLAIRE     CLEAR     43  37  79 W6        29.95R
MENOMONIE      CLEAR     48  36  61 W5        29.95R
NEW RICHMOND   CLEAR     45  34  66 W7        29.97R
OSCEOLA        CLEAR     49  35  59 W9        30.00R
$$

WIZ003>005-009-010-017-018-251400-
NORTH CENTRAL WISCONSIN

CITY           SKY/WX    TMP DP  RH WIND       PRES   REMARKS
MANITOWISH WTR CLEAR     43  36  78 W7        29.82S
ARBOR VITAE    CLEAR     49  39  68 W12       29.83R
WOODRUFF       CLEAR     49  39  68 W12       29.83R
RHINELANDER    CLEAR     46  36  68 W12G20    29.84R
EAGLE RIVER    CLEAR     47  34  60 W14G20    29.80R
LAND O LAKES   CLEAR     46  37  70 W8        29.80R
PHILLIPS       CLEAR     44  36  73 W3        29.86R
TOMAHAWK       CLEAR     45  37  72 W8        29.85S
MEDFORD        CLEAR     45  39  81 W9        29.89R
MERRILL        CLEAR     48  39  70 W9        29.86R
$$

WIZ029-030-035-036-043>047-251400-
CENTRAL WISCONSIN

CITY           SKY/WX    TMP DP  RH WIND       PRES   REMARKS
WAUSAU         CLEAR     48  42  80 W10       29.86R
MOSINEE        CLEAR     46  45  93 W9        29.88S
MARSHFIELD     CLEAR     48  40  73 NW10      29.90R
STEVENS POINT  CLEAR     48  42  78 W6        29.88R
WAUPACA        CLEAR     51  47  87 W5        29.87R
WAUTOMA        NOT AVBL
WISC RAPIDS    CLEAR     49  42  77 W8        29.91R
CAMP DOUGLAS   NOT AVBL
$$

WIZ011>013-019>022-031-037>040-048>050-251400-
NORTHEAST WISCONSIN

CITY           SKY/WX    TMP DP  RH WIND       PRES   REMARKS
ANTIGO         CLEAR     45  40  84 W8        29.84R
SHAWANO        CLEAR     52  47  83 SW5       29.84R
OCONTO         CLEAR     51  50  97 W7        29.81R
STURGEON BAY   CLEAR     52  48  87 W10       29.80R
GREEN BAY      CLEAR     52  49  89 W7        29.84R FOG
MANITOWOC      NOT AVBL
APPLETON       PTCLDY    48  46  93 W8        29.86R
CLINTONVILLE   CLEAR     50  46  87 W6        29.84S
OSHKOSH        CLEAR     52  50  93 W7        29.87R FOG
$$

WIZ032>034-041-042-053>061-251400-
SOUTHWEST WISCONSIN

CITY           SKY/WX    TMP DP  RH WIND       PRES   REMARKS
LA CROSSE      FOG       44  43  96 SE3       29.96R VSB 1/4
SPARTA         CLEAR     50  40  69 W7        29.94R
VIROQUA        CLEAR     49  47  93 W6        29.95S
BOSCOBEL       FOG       49  48  97 SW6       29.97R VSB 1/4
PRAIRIE DU CHI CLEAR     46  45  96 CALM      29.98R FOG
PLATTEVILLE    CLEAR     52  50  93 CALM      29.98R
$$

WIZ056-057-062-063-064-067-068-251400-
SOUTH CENTRAL WISCONSIN

CITY           SKY/WX    TMP DP  RH WIND       PRES   REMARKS
REEDSBURG      CLEAR     48  47  97 CALM      29.92S FOG
BARABOO/DELLS  CLEAR     51  45  81 W5        29.92S
LONE ROCK      FOG       55  51  86 W7        29.95R VSB 1/2
MINERAL POINT  CLEAR     52  50  93 W5        29.96R FOG
MADISON        PTCLDY    54  51  90 W5        29.92R FOG
MIDDLETON      CLEAR     53  53  98 W5        29.93R
WATERTOWN      CLEAR     51  51 100 W5        29.90R FOG
MONROE         CLEAR     54  54 100 W13       29.94R FOG
JANESVILLE     CLEAR     54  52  94 NW9       29.92R FOG
$$

WIZ051-052-058>065-066-070>072-251400-
SOUTHEAST WISCONSIN

CITY           SKY/WX    TMP DP  RH WIND       PRES   REMARKS
MILWAUKEE      PTCLDY    57  51  80 W10       29.90R
WAUKESHA       CLEAR     52  50  93 W9        29.91R FOG
MILWAUKEE/TIMM CLEAR     54  50  87 W6        29.89R FOG
RACINE         CLEAR     55  52  89 W9        29.90R FOG
BURLINGTON     CLEAR     52  51  95 W6        29.90S FOG
KENOSHA        CLEAR     55  53  93 W9        29.89R FOG
FOND DU LAC    CLEAR     53  48  83 W9        29.88R
SHEBOYGAN      CLEAR     54  50  86 W9        29.86R
WEST BEND      CLEAR     54  48  82 W10G16    29.87S
JUNEAU         CLEAR     51  49  93 W3        29.91R FOG
$$

LSZ147-162-251400-
LAKE SUPERIOR

STATION/POSITION TIME  TEMP    WIND        PRES    WAVE
                       AIR SEA DIR/SP/G            HT/PER
                 (UTC) (F)     (DEG/KT/KT) (MB)    (FT/S)
W MID LAKE BUOY  1150   51 46  270/ 21/ 25 1006.1R   4/ 5
DEVILS ISLAND    1200   52     270/ 20/ 25 1009.4R
PORT WING        1240   52     260/ 13/ 18 1011.9R
SAXON HARBOR     1200   53     230/  5/ 10 1010.2R
$$

LMZ867-665-643>646-251400-
LAKE MICHIGAN

STATION/POSITION TIME  TEMP    WIND        PRES    WAVE
                       AIR SEA DIR/SP/G            HT/PER
                 (UTC) (F)     (DEG/KT/KT) (MB)    (FT/S)
CHAMBERS ISLAND  1200   53     220/  6/ 13 1008.1S
N MID LAKE BUOY  1150   54 51  260/ 17/ 19 1006.3R   3/ 5
NORTHPORT PIER   1200   55     270/  7/ 13 1007.5S
SISTER BAY       1213          290/ 12/ 13   N/A
KEWAUNEE LAKESHO 1200   54     280/  6/  8 1008.2R
SHEBOYGAN LAKESH 1200   56 51  270/ 12/ 15 1010.7R
PORT WASHINGTON  1240   56     280/  5/  9 1012.2R
ATWATER BUOY     1200   56     260/ 12/ 16 1012.3R
MILWAUKEE LAKESH 1200   57     280/ 10/ 12   N/A
S MID LAKE BUOY  1150   55 54  240/ 10/ 12 1011.3F   2/ 3
KENOSHA   LAKESH 1200   56     270/ 12/ 15 1011.5S
$$

TC  - TEMPERATURE IN CELSIUS
VSB - VISIBILITY IN STATUTE MILES
WCI - WIND CHILL INDEX
HX  - HEAT INDEX




USA.gov is the U.S. government's official web portal to all federal, state and local government web resources and services.